Location: Newark
(40.4667°N, 5.6000°W)
Time: 05:56:01
(UTC+00:00)

Envisat - Visible Passes

Search period start: 20 March 2019 00:00
Search period end: 30 March 2019 00:00
Orbit: 764 x 766 km, 98.2° (Epoch: 19 March)

Date Brightness Start Highest point End Pass type
(mag) Time Alt. Az. Time Alt. Az. Time Alt. Az.
20 Mar 5.1 19:52:59 10° SSW 19:57:17 28° W 20:01:38 10° NW visible
21 Mar 3.6 19:15:22 10° S 19:20:23 63° W 19:25:27 10° NNW visible
22 Mar 5.9 20:20:02 10° SW 20:23:03 16° W 20:26:05 10° NW visible
23 Mar 4.7 19:41:24 10° SSW 19:46:01 35° W 19:50:39 10° NNW visible
24 Mar 3.2 19:04:06 10° S 19:09:09 80° WSW 19:14:16 10° NNW visible
25 Mar 5.7 20:08:03 10° SW 20:11:44 20° W 20:15:26 10° NW visible
26 Mar 4.3 19:29:55 10° S 19:34:44 44° W 19:39:37 10° NNW visible
27 Mar 6.2 20:36:18 10° WSW 20:37:33 11° W 20:38:49 10° WNW visible
28 Mar 5.3 19:56:16 10° SSW 20:00:25 25° W 20:04:37 10° NW visible
29 Mar 3.8 19:18:31 10° S 19:23:30 57° W 19:28:30 10° NNW visible
